Location: Miles
(41.4492°N, 81.6087°W)
Time: 02:44:42
(UTC+00:00)

Courier 1B - Pass Details

Date: 14 September 2024
Orbit: 962 x 1208 km, 28.3° (Epoch: 07 October)

Event Time Altitude Azimuth Distance (km) Brightness Sun altitude
Rises 21:12:17 0° 244° (WSW) 3,946 12.0 25.8°
Reaches altitude 10° 21:15:22 10° 234° (SW) 3,024 11.7 25.2°
Maximum altitude 21:21:42 30° 177° (S) 1,969 9.5 24.1°
Drops below altitude 10° 21:28:14 10° 119° (ESE) 3,129 9.8 22.9°
Sets 21:31:30 0° 110° (ESE) 4,104 10.3 22.4°
